Вернуться в каталог

STARLINK-31854

АктивенСвязьVLEO
NORAD 59671·PAYLOAD·🇺🇸 United States

Запущен May 6, 2024 с Cape Canaveral Space Force Station

Loading…

Ближайшие Пролёты (ближайшие 24 часа)

TLE

СвежийSource: CelesTrak SupGP

Эпоха: Sep 14, 2026, 21:00 UTC

1 59671C 24084T   26257.87548611  .00045334  00000+0  16417-2 0  2574
2 59671  43.0045  20.3482 0001911 277.7220  76.3956 15.27560368    14

Отслеживайте STARLINK-31854 в реальном времени с AllMySat

Download on the App Store